Location: Gaast
(52.9002°N, 5.8891°E)
Time: 03:09:13
(UTC+00:00)

Cosmos 1346 Rocket - Pass Details

Date: 18 November 2025
Orbit: 479 x 490 km, 81.2° (Epoch: 15 December)

Event Time Altitude Azimuth Distance (km) Brightness Sun altitude
Rises 17:36:12 0° 351° (N) 2,589 6.3 -17.5°
Reaches altitude 10° 17:38:25 10° 358° (N) 1,701 5.2 -17.8°
Enters shadow 17:40:57 34° 29° (NNE) 839 3.4 -18.2°
